Hourly Data Report for July 05, 2021

POND INLET A
NUNAVUT
Current Station Operator: NAVCAN

72°41'22.000" N
77°58'08.000" W
61.60 m
2403206
71095
YIO

Download Data

Hourly Data (July 2021)
Hourly Data Report for July 5, 2021
TIME
LST
Temp Definition
°C
Dew Point Definition
°C
Rel Hum Definition
%
Precip. Amount Definition
mm

Wind Dir Definition
10's deg

Wind Spd Definition
km/h
Visibility Definition
km
Stn Press Definition
kPa
Hmdx Definition


Wind Chill Definition


Weather Definition


00:00 1.5 0.9 96 0.0 17 5 16.1 100.45     Rain
01:00 1.1 0.8 98 0.0 5 9 8.1 100.44     Fog
02:00 1.1 1.0 99 0.0 6 9 16.1 100.45     LegendNANA
03:00 1.2 1.1 99 0.0 6 5 16.1 100.46     LegendNANA
04:00 1.6 1.0 96 0.0 LegendMM 4 16.1 100.45     LegendNANA
05:00 1.1 0.8 98 0.0 32 8 16.1 100.46     LegendNANA
06:00 0.6 0.5 99 0.0 LegendMM 4 0.4 100.48     Fog
07:00 1.1 0.4 95 0.0 33 5 16.1 100.49     LegendNANA
08:00 1.4 0.2 92 0.0 31 5 16.1 100.50     LegendNANA
09:00 1.5 0.2 91 0.0 31 5 16.1 100.51     LegendNANA
10:00 1.1 0.1 93 0.0 28 5 16.1 100.53     LegendNANA
11:00 1.6 0.5 92 0.0 28 9 16.1 100.52     LegendNANA
12:00 1.8 0.8 93 0.0 27 9 16.1 100.51     LegendNANA
13:00 3.1 1.4 89 0.0 27 9 16.1 100.51     LegendNANA
14:00 2.3 0.8 90 0.0 25 13 16.1 100.51     LegendNANA
15:00 3.2 0.2 81 0.0 25 11 16.1 100.50     LegendNANA
16:00 2.7 0.3 84 0.0 27 9 16.1 100.51     LegendNANA
17:00 2.8 0.0 82 0.0 27 11 16.1 100.49     LegendNANA
18:00 3.5 0.3 80 0.0 LegendMM 5 16.1 100.48     LegendNANA
19:00 3.1 0.3 82 0.0 25 13 16.1 100.47     LegendNANA
20:00 3.1 0.4 83 0.0 22 9 16.1 100.46     LegendNANA
21:00 3.7 0.6 80 0.0 23 11 16.1 100.41     LegendNANA
22:00 3.2 0.3 81 0.0 22 8 16.1 100.38     LegendNANA
23:00 3.0 0.3 83 0.0 23 9 16.1 100.34     LegendNANA

Notes on Data Quality.

Legend

  • E = Estimated
  • M = Missing
  • NA = Not Available*
  • [empty] = Indicates an unobserved value
Date modified: